Iron Mountain, MI

4:43 AM CST on February 12, 2016 (GMT -0600)
Ford

Weather History for KIMT - January, 2013

Change the Weather History Date:

Wednesday, January 30, 2013

  Actual Average Record
Temperature  
Mean Temperature 22 °F -  
Max Temperature 33 °F 25 °F 43 °F (2016)
Min Temperature 10 °F 0 °F -31 °F (1951)
Degree Days  
Heating Degree Days 44    
Moisture  
Dew Point 16 °F    
Average Humidity 82    
Maximum Humidity 86    
Minimum Humidity 74    
Precipitation  
Precipitation 0.00 in - - ()
Sea Level Pressure  
Sea Level Pressure 29.40 in    
Wind  
Wind Speed 16 mph (NNW)    
Max Wind Speed 22 mph    
Max Gust Speed 30 mph    
Visibility 3 miles    
Events Fog , Snow    
Averages and records for this station are not official NWS values.
T = Trace of Precipitation, MM = Missing Value Source: NWS Daily Summary

Daily Weather History Graph

Daily Weather History Graph

Search for Another Location

Airport or City:

Trip Planner

Search our weather history database for the weather conditions in past years. The results will help you decide how hot, cold, wet, or windy it might be!

Date:

Astronomy

Jan. 30, 2013 Rise Set
Actual Time 7:16 AM CST 4:55 PM CST
Civil Twilight 6:44 AM CST 5:27 PM CST
Nautical Twilight 6:08 AM CST 6:03 PM CST
Astronomical Twilight 5:33 AM CST 6:38 PM CST
Moon 9:10 PM CST (1/30) 8:29 AM CST (1/30)
Length of Visible Light 10h 43m
Length of Day
9h 39m
Waning Gibbous, 87% of the Moon is Illuminated
Jan 30
Waning Gibbous
Feb 3
Last Quarter
Feb 10
New
Feb 17
First Quarter
Feb 25
Full

Hourly Weather History & Observations

Time (CST) Temp. Windchill Dew Point Humidity Pressure Visibility Wind Dir Wind Speed Gust Speed Precip Events Conditions
12:30 AM 33.8 °F 24.8 °F 28.4 °F 81% 29.53 in 10.0 mi NNW 12.7 mph 21.9 mph N/A   Overcast
12:54 AM 32.0 °F 20.5 °F 27.0 °F 82% 29.54 in 10.0 mi North 18.4 mph 24.2 mph N/A   Overcast
1:54 AM 32.0 °F 20.8 °F 27.0 °F 82% 29.53 in 10.0 mi NNW 17.3 mph 23.0 mph N/A   Overcast
2:54 AM 30.0 °F 17.9 °F 25.0 °F 82% 29.48 in 10.0 mi North 18.4 mph - N/A   Overcast
3:54 AM 30.0 °F 19.5 °F 24.1 °F 79% 29.50 in 10.0 mi North 13.8 mph - N/A   Overcast
4:54 AM 28.9 °F 16.9 °F 24.1 °F 82% 29.49 in 10.0 mi North 17.3 mph - N/A   Overcast
5:54 AM 28.0 °F 15.3 °F 21.9 °F 78% 29.49 in 10.0 mi North 18.4 mph 23.0 mph N/A   Overcast
6:54 AM 27.0 °F 16.1 °F 21.0 °F 78% 29.49 in 10.0 mi NNW 12.7 mph - N/A   Overcast
7:02 AM 26.6 °F 13.1 °F 19.4 °F 74% 29.45 in 10.0 mi North 19.6 mph 23.0 mph N/A   Overcast
7:54 AM 26.1 °F 13.6 °F 19.9 °F 78% 29.49 in 10.0 mi North 16.1 mph - N/A   Overcast
8:54 AM 26.1 °F 16.2 °F 19.9 °F 78% 29.46 in 10.0 mi North 10.4 mph - N/A   Overcast
9:20 AM 24.8 °F 14.0 °F 19.4 °F 80% 29.42 in 1.8 mi North 11.5 mph 18.4 mph 0.00 in Snow Light Snow
9:35 AM 24.8 °F 14.6 °F 21.2 °F 86% 29.40 in 0.8 mi North 10.4 mph - 0.00 in Snow Light Snow
9:42 AM 24.8 °F 14.6 °F 21.2 °F 86% 29.39 in 0.5 mi North 10.4 mph - 0.00 in Fog , Snow Light Snow
9:49 AM 24.8 °F 12.4 °F 21.2 °F 86% 29.38 in 1.0 mi North 15.0 mph 20.7 mph 0.00 in Snow Light Snow
9:54 AM 24.1 °F 11.0 °F 19.9 °F 84% 29.42 in 1.0 mi North 16.1 mph 23.0 mph 0.00 in Snow Light Snow
10:17 AM 24.8 °F 13.4 °F 19.4 °F 80% 29.38 in 0.5 mi North 12.7 mph - 0.00 in Fog , Snow Snow
10:46 AM 24.8 °F 12.9 °F 19.4 °F 80% 29.37 in 1.0 mi North 13.8 mph - 0.00 in Snow Light Snow
10:54 AM 24.1 °F 13.1 °F 19.9 °F 84% 29.42 in 1.0 mi North 11.5 mph - 0.00 in Snow Light Snow
11:01 AM 24.8 °F 13.4 °F 19.4 °F 80% 29.36 in 0.8 mi North 12.7 mph - 0.00 in Snow Light Snow
11:11 AM 24.8 °F 10.7 °F 19.4 °F 80% 29.36 in 0.2 mi North 19.6 mph 24.2 mph 0.00 in Fog , Snow Heavy Snow
11:19 AM 23.0 °F 8.3 °F 19.4 °F 86% 29.36 in 0.2 mi North 19.6 mph - 0.00 in Fog , Snow Snow
11:35 AM 23.0 °F 8.7 °F 19.4 °F 86% 29.35 in 0.5 mi North 18.4 mph - 0.00 in Fog , Snow Snow
11:54 AM 21.9 °F 6.9 °F 18.0 °F 85% 29.39 in 0.5 mi North 19.6 mph 27.6 mph 0.00 in Fog , Snow Snow
12:11 PM 21.2 °F 7.3 °F 17.6 °F 86% 29.33 in 1.2 mi North 16.1 mph - 0.00 in Snow Light Snow
12:28 PM 21.2 °F 6.0 °F 17.6 °F 86% 29.35 in 0.5 mi North 19.6 mph 28.8 mph 0.00 in Fog , Snow Snow
12:46 PM 21.2 °F 6.4 °F 15.8 °F 80% 29.34 in 1.0 mi NNW 18.4 mph 28.8 mph 0.00 in Snow Light Snow
12:54 PM 19.9 °F 5.7 °F 16.0 °F 85% 29.39 in 1.0 mi NNW 16.1 mph 28.8 mph 0.00 in Snow Light Snow
1:05 PM 19.4 °F 2.8 °F 15.8 °F 86% 29.35 in 0.8 mi NNW 21.9 mph 26.5 mph 0.00 in Snow Light Snow
1:19 PM 19.4 °F 5.5 °F 15.8 °F 86% 29.35 in 0.2 mi NNW 15.0 mph 27.6 mph 0.00 in Fog Light Freezing Fog
1:26 PM 19.4 °F 4.1 °F 15.8 °F 86% 29.34 in 0.5 mi NNW 18.4 mph 23.0 mph 0.00 in Fog Light Freezing Fog
1:45 PM 19.4 °F 4.1 °F 15.8 °F 86% 29.33 in 1.0 mi North 18.4 mph 25.3 mph 0.00 in   Mist
1:52 PM 19.4 °F 4.1 °F 15.8 °F 86% 29.32 in 0.5 mi NNW 18.4 mph 24.2 mph 0.00 in Fog Light Freezing Fog
1:54 PM 19.0 °F 3.2 °F 15.1 °F 85% 29.37 in 0.5 mi NNW 19.6 mph 25.3 mph 0.00 in Fog Light Freezing Fog
2:04 PM 19.4 °F 3.2 °F 15.8 °F 86% 29.31 in 0.2 mi NNW 20.7 mph 29.9 mph N/A Fog Light Freezing Fog
2:12 PM 19.4 °F 3.2 °F 14.0 °F 80% 29.31 in 0.5 mi NNW 20.7 mph 25.3 mph N/A   Haze
2:19 PM 19.4 °F 4.5 °F 14.0 °F 80% 29.31 in 0.8 mi NNW 17.3 mph 26.5 mph N/A   Haze
2:37 PM 17.6 °F 0.5 °F 12.2 °F 79% 29.31 in 0.8 mi NNW 21.9 mph 27.6 mph N/A   Haze
2:54 PM 18.0 °F 1.7 °F 12.9 °F 81% 29.37 in 0.8 mi NNW 19.6 mph 26.5 mph N/A   Haze
3:06 PM 17.6 °F 0.9 °F 12.2 °F 79% 29.32 in 0.5 mi NNW 20.7 mph 27.6 mph N/A Fog Light Freezing Fog
3:54 PM 16.0 °F 0.1 °F 12.0 °F 84% 29.37 in 0.5 mi NNW 17.3 mph 28.8 mph N/A Fog Light Freezing Fog
4:50 PM 15.8 °F 0.9 °F 10.4 °F 79% 29.33 in 1.2 mi NNW 15.0 mph 25.3 mph N/A   Overcast
4:54 PM 15.1 °F -1.6 °F 10.0 °F 80% 29.39 in 1.2 mi NNW 18.4 mph - N/A   Haze
5:54 PM 14.0 °F -3.0 °F 10.0 °F 84% 29.41 in 1.0 mi NNW 18.4 mph - 0.00 in Snow Light Snow
6:36 PM 14.0 °F -2.5 °F 8.6 °F 79% 29.35 in 1.5 mi NW 17.3 mph 24.2 mph 0.00 in Snow Light Snow
6:54 PM 14.0 °F -2.5 °F 9.0 °F 80% 29.41 in 1.5 mi NW 17.3 mph - 0.00 in Snow Light Snow
7:49 PM 12.2 °F -4.8 °F 8.6 °F 85% 29.35 in 2.0 mi NW 17.3 mph 25.3 mph 0.00 in Snow Light Snow
7:54 PM 12.9 °F -3.9 °F 8.1 °F 81% 29.41 in 2.0 mi NW 17.3 mph 25.3 mph 0.00 in Snow Light Snow
8:24 PM 12.2 °F -4.8 °F 6.8 °F 79% 29.36 in 3.0 mi NW 17.3 mph 26.5 mph 0.00 in Snow Light Snow
8:54 PM 12.9 °F -3.4 °F 6.1 °F 74% 29.42 in 3.0 mi NW 16.1 mph 25.3 mph 0.00 in Snow Light Snow
9:54 PM 12.0 °F -5.1 °F 6.1 °F 77% 29.44 in 6.0 mi NW 17.3 mph 26.5 mph 0.00 in Snow Light Snow
10:54 PM 10.9 °F -5.4 °F 5.0 °F 77% 29.45 in 7.0 mi NW 15.0 mph - 0.00 in Snow Light Snow
11:54 PM 10.9 °F -6.5 °F 5.0 °F 77% 29.47 in 5.0 mi NW 17.3 mph 25.3 mph 0.00 in Snow Light Snow